Powrót do katalogu

SL-6 R/B(2)

AktywnyHEO
NORAD 15223·ROCKET BODY·🇷🇺 Russia

Wystrzelony Aug 24, 1984 z Plesetsk Cosmodrome

Loading…

Następne Przeloty (najbliższe 24 godziny)

TLE

ŚwieżeSource: Space-Track

Epoka: Sep 13, 2026, 20:47 UTC

1 15223U 84089D   26256.86605968 -.00000978  00000-0  50763-2 0  9999
2 15223  62.8995 242.7127 7233839 279.5013  12.1758  2.02620010  5687

Śledź SL-6 R/B(2) w czasie rzeczywistym z AllMySat

Download on the App Store